EW1098 Weather Reports


time (UTC)temp
F
wind
direction
speed
knots
gust
knots
rain 1hr
in
rain 24hr
in
rain mn
in
humidity
%
barometer
mb
20260504034601 61 169 2.6 9.6 0.00 0.00 0.00 54 1006.2
20260504033100 62 227 5.2 9.6 0.00 0.00 0.00 54 1006.4
20260504031556 62 101 5.2 8.7 0.00 0.00 0.00 53 1006.4
20260504030054 63 221 4.3 10.4 0.00 0.00 0.00 52 1006.6
20260504024602 63 245 5.2 9.6 0.00 0.00 0.00 52 1006.6
20260504023057 64 198 6.1 11.3 0.00 0.00 0.00 51 1006.5
20260504021553 64 249 6.1 12.2 0.00 0.00 0.00 50 1006.4
20260504020107 64 238 7.0 12.2 0.00 0.00 0.00 49 1006.3
20260504014553 65 263 7.0 14.8 0.00 0.00 0.00 49 1006.1
20260504013049 65 217 7.0 14.8 0.00 0.00 0.00 48 1005.9
20260504011552 65 118 7.8 14.8 0.00 0.00 0.00 47 1005.7
20260504010054 66 267 5.2 13.0 0.00 0.00 0.00 46 1005.7
20260504004552 67 169 5.2 12.2 0.00 0.00 0.00 44 1005.8
20260504003055 68 225 7.8 16.5 0.00 0.00 0.00 42 1005.7
20260504001555 68 252 12.2 18.2 0.00 0.00 0.00 41 1005.7
20260504000054 68 244 12.2 18.2 0.00 0.00 0.00 41 1005.7
20260503234624 69 240 13.0 24.3 0.00 0.00 0.00 41 1005.7
20260503233056 68 236 10.4 18.2 0.00 0.00 0.00 41 1005.8
20260503231555 68 238 7.8 18.2 0.00 0.00 0.00 40 1005.9
20260503230055 68 226 7.8 17.4 0.00 0.00 0.00 40 1006.0
20260503224552 68 225 9.6 22.6 0.00 0.00 0.00 40 1006.2
20260503223057 67 105 9.6 18.2 0.00 0.00 0.00 40 1006.5
20260503221600 67 219 6.1 19.1 0.00 0.00 0.00 40 1006.7
20260503220057 66 217 11.3 23.5 0.00 0.00 0.00 41 1006.9
20260503214554 66 301 11.3 30.4 0.00 0.00 0.00 41 1007.0
20260503213054 65 282 8.7 21.7 0.00 0.00 0.00 40 1007.1
20260503211559 65 217 12.2 27.8 0.00 0.00 0.00 39 1007.4
20260503210053 66 164 11.3 31.3 0.00 0.00 0.00 39 1007.6
20260503204557 65 224 13.0 26.1 0.00 0.00 0.00 37 1008.1
20260503203058 65 342 13.0 27.8 0.00 0.00 0.00 39 1008.3
20260503201555 64 167 14.8 29.5 0.00 0.00 0.00 41 1008.5
20260503200055 63 299 8.7 23.5 0.00 0.00 0.00 43 1008.9
20260503194558 62 180 7.8 24.3 0.00 0.00 0.00 47 1009.0
20260503193053 61 263 8.7 20.0 0.00 0.00 0.00 49 1009.1
20260503191554 60 112 8.7 19.1 0.00 0.00 0.00 50 1009.2
20260503190056 58 116 12.2 21.7 0.00 0.00 0.00 51 1009.4
20260503184552 57 48 8.7 17.4 0.00 0.00 0.00 52 1009.7
20260503183051 55 179 7.8 14.8 0.00 0.00 0.00 56 1010.0
20260503181553 55 5 6.1 18.2 0.00 0.00 0.00 58 1010.3
20260503180059 54 256 9.6 21.7 0.00 0.00 0.00 58 1011.1
20260503174601 54 351 11.3 20.9 0.00 0.00 0.00 59 1011.7
20260503173104 54 19 7.0 20.9 0.00 0.00 0.00 61 1012.1
20260503171555 54 263 10.4 20.0 0.00 0.00 0.00 61 1012.4
20260503140110 51 242 7.8 20.9 0.00 0.00 0.00 55 1014.1
20260503110110 47 257 5.2 13.9 0.00 0.00 0.00 56 1014.1
20260503081553 48 221 6.1 13.9 0.00 0.00 0.00 50 1014.7
20260503071612 48 219 5.2 10.4 0.00 0.00 0.00 49 1015.0
20260503060110 49 223 7.8 13.9 0.00 0.00 0.00 46 1015.6
20260503054600 49 254 5.2 10.4 0.00 0.00 0.00 47 1015.7
20260503053051 49 219 3.5 8.7 0.00 0.00 0.00 47 1015.8
20260503051552 50 266 3.5 9.6 0.00 0.00 0.00 46 1015.9
20260503050054 50 199 7.0 13.9 0.00 0.00 0.00 45 1016.1
20260503044552 50 38 4.3 12.2 0.00 0.00 0.00 45 1016.1
20260503043052 50 216 5.2 13.0 0.00 0.00 0.00 45 1016.1
20260503041553 51 223 5.2 12.2 0.00 0.00 0.00 45 1016.3
20260503040113 51 250 5.2 12.2 0.00 0.00 0.00 45 1016.2